Date String (YYYY-MM-DD hh:mm:ss) UTC,Instrument flags,absolute air pressure of the measurement (hPa),sample flow rate (lpm),inlet stack bypass flow (lpm),air temperature of the measurement (°C),ambient temperature measured by the external sensor (°C),aerosol sample conditioner tube jacket temperature (°C),OPC LED temperature (°C),internal box temperature (°C),relative humidity of the measurement (%),span deviation,mass concentration of particles derived from Lorenz-Mie calculation of OPC scattering (μg/m³),mass concentration of particles derived from Lorenz-Mie calculation of OPC scattering (μg/m³),mass concentration of particles derived from Lorenz-Mie calculation of OPC scattering (μg/m³)
DateTimeUTC,F1_M11,P_M11,Q1_M11,Q2_M11,T1_M11,T2_M11,T3_M11,T4_M11,T5_M11,U1_M11,ZSPAN_M11,X0_M11,X2_M11,X1_M11
2023-12-08 18:00:00,SystemResetWarning,0822.0,5.01,000.00,021.4,020.6,000.0,029.7,022.8,13.0,0000.0,0010.70,0003.36,0002.06
2023-12-08 18:01:00,SystemResetWarning,0821.7,5.01,000.00,021.4,020.6,000.0,029.7,022.8,13.1,0000.0,0010.46,0003.35,0002.10
2023-12-08 18:02:00,SystemResetWarning,0821.8,5.01,000.00,021.4,020.6,000.0,029.7,022.8,13.0,0000.0,0010.13,0003.33,0002.11
2023-12-08 18:03:00,SystemResetWarning,0821.9,5.00,000.00,021.4,020.6,000.0,029.7,022.8,13.0,0000.0,0010.14,0003.33,0002.14
2023-12-08 18:04:00,SystemResetWarning,0821.8,5.00,000.00,021.4,020.6,000.0,029.7,022.8,13.0,0000.0,0010.07,0003.34,0002.16
2023-12-08 18:05:00,SystemResetWarning,0821.7,5.00,000.00,021.4,020.6,000.0,029.7,022.8,12.8,0000.0,0010.16,0003.34,0002.18
2023-12-08 18:06:00,SystemResetWarning,0822.0,4.99,000.00,021.5,020.6,000.0,029.7,022.8,13.1,0000.0,0010.14,0003.33,0002.18
2023-12-08 18:07:00,SystemResetWarning,0821.7,5.00,000.00,021.5,020.6,000.0,029.7,022.8,13.3,0000.0,0009.43,0003.30,0002.15
2023-12-08 18:08:00,SystemResetWarning,0821.5,5.00,000.00,021.5,020.6,000.0,029.7,022.8,13.1,0000.0,0008.53,0003.27,0002.15
2023-12-08 18:09:00,SystemResetWarning,0821.4,5.00,000.00,021.5,020.6,000.0,029.7,022.8,13.0,0000.0,0008.29,0003.23,0002.14
2023-12-08 18:10:00,SystemResetWarning,0821.3,5.00,000.00,021.5,020.6,000.0,029.7,022.8,12.8,0000.0,0008.35,0003.16,0002.14
2023-12-08 18:11:00,SystemResetWarning,0821.3,5.00,000.00,021.5,020.6,000.0,029.7,022.8,12.7,0000.0,0008.16,0003.12,0002.14
2023-12-08 18:12:00,SystemResetWarning,0821.3,5.01,000.00,021.5,020.6,000.0,029.7,022.8,12.6,0000.0,0008.50,0003.07,0002.12
2023-12-08 18:13:00,SystemResetWarning,0821.3,5.00,000.00,021.5,020.6,000.0,029.7,022.8,12.5,0000.0,0008.67,0003.11,0002.12
2023-12-08 18:14:00,SystemResetWarning,0821.3,5.01,000.00,021.5,020.6,000.0,029.7,022.8,12.5,0000.0,0009.38,0003.12,0002.12
2023-12-08 18:15:00,SystemResetWarning,0821.3,5.01,000.00,021.5,020.6,000.0,029.7,022.8,12.5,0000.0,0009.77,0003.06,0002.10
2023-12-08 18:16:00,SystemResetWarning,0821.3,5.00,000.00,021.5,020.6,000.0,029.7,022.8,12.5,0000.0,0009.70,0003.08,0002.09
2023-12-08 18:17:00,SystemResetWarning,0821.3,5.01,000.00,021.5,020.6,000.0,029.7,022.8,12.6,0000.0,0009.59,0003.03,0002.08
2023-12-08 18:18:00,SystemResetWarning,0821.3,4.99,000.00,021.5,020.6,000.0,029.7,022.8,12.7,0000.0,0009.99,0003.05,0002.07
2023-12-08 18:19:00,SystemResetWarning,0821.3,4.99,000.00,021.5,020.6,000.0,029.7,022.8,12.6,0000.0,0010.43,0003.07,0002.06
2023-12-08 18:20:00,SystemResetWarning,0821.3,5.01,000.00,021.5,020.6,000.0,029.7,022.8,12.5,0000.0,0010.13,0003.06,0002.05
2023-12-08 18:21:00,SystemResetWarning,0821.3,5.01,000.00,021.5,020.6,000.0,029.8,022.8,12.5,0000.0,0010.07,0003.11,0002.05
2023-12-08 18:22:00,SystemResetWarning,0821.3,5.01,000.00,021.5,020.6,000.0,029.8,022.8,12.5,0000.0,0009.99,0003.12,0002.03
2023-12-08 18:23:00,SystemResetWarning,0821.3,4.99,000.00,021.5,020.7,000.0,029.8,022.8,12.5,0000.0,0009.27,0003.10,0002.00
2023-12-08 18:24:00,SystemResetWarning,0821.3,4.99,000.00,021.5,020.7,000.0,029.8,022.8,12.4,0000.0,0009.05,0002.98,0001.98
2023-12-08 18:25:00,SystemResetWarning,0821.3,5.01,000.00,021.5,020.7,000.0,029.8,022.9,12.6,0000.0,0008.29,0002.92,0001.97
2023-12-08 18:26:00,SystemResetWarning,0821.2,5.01,000.00,021.5,020.7,000.0,029.8,022.8,12.6,0000.0,0007.53,0002.87,0001.94
2023-12-08 18:27:00,SystemResetWarning,0821.2,5.01,000.00,021.5,020.7,000.0,029.8,022.8,12.5,0000.0,0007.69,0002.82,0001.93
2023-12-08 18:28:00,SystemResetWarning,0821.2,5.00,000.00,021.5,020.7,000.0,029.8,022.8,12.4,0000.0,0007.70,0002.84,0001.92
2023-12-08 18:29:00,SystemResetWarning,0821.2,5.00,000.00,021.5,020.7,000.0,029.8,022.8,12.3,0000.0,0007.13,0002.84,0001.93
2023-12-08 18:30:00,SystemResetWarning,0821.1,4.99,000.00,021.5,020.7,000.0,029.8,022.9,12.4,0000.0,0006.32,0002.76,0001.90
2023-12-08 18:31:00,SystemResetWarning,0821.1,5.00,000.00,021.5,020.7,000.0,029.8,022.9,12.4,0000.0,0007.05,0002.75,0001.89
2023-12-08 18:32:00,SystemResetWarning,0821.2,5.01,000.00,021.5,020.7,000.0,029.8,022.9,12.6,0000.0,0006.96,0002.68,0001.88
2023-12-08 18:33:00,SystemResetWarning,0821.4,5.01,000.00,021.5,020.7,000.0,029.8,022.8,12.6,0000.0,0007.43,0002.73,0001.87
2023-12-08 18:34:00,SystemResetWarning,0821.2,5.00,000.00,021.5,020.7,000.0,029.8,022.9,12.5,0000.0,0008.21,0002.83,0001.88
2023-12-08 18:35:00,SystemResetWarning,0821.0,4.99,000.00,021.6,020.7,000.0,029.8,022.9,12.4,0000.0,0008.37,0002.91,0001.87
2023-12-08 18:36:00,SystemResetWarning,0821.0,4.99,000.00,021.6,020.7,000.0,029.8,022.9,12.6,0000.0,0008.42,0002.88,0001.85
2023-12-08 18:37:00,SystemResetWarning,0821.1,5.00,000.00,021.6,020.7,000.0,029.8,022.9,12.4,0000.0,0008.19,0002.88,0001.84
2023-12-08 18:38:00,SystemResetWarning,0821.1,5.00,000.00,021.6,020.8,000.0,029.8,022.9,12.5,0000.0,0007.59,0002.85,0001.84
2023-12-08 18:39:00,SystemResetWarning,0821.1,5.00,000.00,021.6,020.8,000.0,029.8,022.9,12.5,0000.0,0007.53,0002.80,0001.84
2023-12-08 18:40:00,SystemResetWarning,0821.0,5.00,000.00,021.6,020.8,000.0,029.8,022.9,12.5,0000.0,0007.61,0002.79,0001.82
2023-12-08 18:41:00,SystemResetWarning,0821.1,5.00,000.00,021.6,020.8,000.0,029.8,022.9,12.5,0000.0,0007.92,0002.86,0001.82
2023-12-08 18:42:00,SystemResetWarning,0821.0,5.00,000.00,021.6,020.8,000.0,029.8,023.0,12.5,0000.0,0007.82,0002.87,0001.82
2023-12-08 18:43:00,SystemResetWarning,0821.0,4.99,000.00,021.6,020.8,000.0,029.8,023.0,12.6,0000.0,0007.72,0002.92,0001.83
2023-12-08 18:44:00,SystemResetWarning,0821.0,5.00,000.00,021.6,020.8,000.0,029.9,023.0,12.5,0000.0,0007.43,0002.90,0001.83
2023-12-08 18:45:00,SystemResetWarning,0821.1,5.00,000.00,021.6,020.8,000.0,029.9,023.0,12.3,0000.0,0006.16,0002.79,0001.82
2023-12-08 18:46:00,SystemResetWarning,0821.1,5.01,000.00,021.6,020.8,000.0,029.9,023.0,12.4,0000.0,0005.89,0002.70,0001.81
2023-12-08 18:47:00,SystemResetWarning,0821.1,5.01,000.00,021.6,020.8,000.0,029.9,023.0,12.4,0000.0,0005.87,0002.67,0001.80
2023-12-08 18:48:00,SystemResetWarning,0821.1,4.99,000.00,021.6,020.8,000.0,029.9,023.0,12.2,0000.0,0005.89,0002.66,0001.82
2023-12-08 18:49:00,SystemResetWarning,0821.1,5.00,000.00,021.6,020.8,000.0,029.9,023.0,12.3,0000.0,0006.03,0002.71,0001.82
2023-12-08 18:50:00,SystemResetWarning,0821.1,4.99,000.00,021.7,020.8,000.0,029.9,023.0,12.4,0000.0,0007.42,0002.72,0001.82
2023-12-08 18:51:00,SystemResetWarning,0821.0,5.00,000.00,021.7,020.8,000.0,029.9,023.0,12.2,0000.0,0007.71,0002.71,0001.83
2023-12-08 18:52:00,SystemResetWarning,0820.9,4.99,000.00,021.7,020.9,000.0,029.9,023.0,12.2,0000.0,0007.53,0002.66,0001.83
2023-12-08 18:53:00,SystemResetWarning,0820.9,5.01,000.00,021.7,020.9,000.0,029.9,023.0,12.0,0000.0,0007.22,0002.63,0001.83
2023-12-08 18:54:00,SystemResetWarning,0820.9,5.00,000.00,021.7,020.9,000.0,029.9,023.0,12.1,0000.0,0007.20,0002.55,0001.81
2023-12-08 18:55:00,SystemResetWarning,0821.0,5.00,000.00,021.7,020.9,000.0,029.9,023.0,12.1,0000.0,0007.20,0002.48,0001.79
2023-12-08 18:56:00,SystemResetWarning,0820.9,5.00,000.00,021.7,020.9,000.0,029.9,023.0,12.1,0000.0,0007.36,0002.50,0001.80
2023-12-08 18:57:00,SystemResetWarning,0820.8,5.00,000.00,021.7,020.9,000.0,029.9,023.0,12.0,0000.0,0007.50,0002.52,0001.79
2023-12-08 18:58:00,SystemResetWarning,0820.9,5.00,000.00,021.7,020.9,000.0,029.9,023.0,11.9,0000.0,0007.80,0002.56,0001.79
2023-12-08 18:59:00,SystemResetWarning,0820.9,5.00,000.00,021.7,020.9,000.0,029.9,023.1,12.0,0000.0,0007.87,0002.62,0001.78
